Location: Unspecified
(35.7250°N, 0.0000°E)
Time: 15:22:45
(UTC+00:00)

A-11 Canister half - Visible Passes

Search period start: 16 June 2019 00:00
Search period end: 26 June 2019 00:00
Orbit: 1525 x 1684 km, 47.3° (Epoch: 15 June)

Date Brightness Start Highest point End Pass type
(mag) Time Alt. Az. Time Alt. Az. Time Alt. Az.
16 Jun 10.9 02:55:01 10° SSE 02:59:01 13° ESE 03:02:59 10° E visible
17 Jun 10.9 02:34:14 10° SE 02:37:29 12° ESE 02:40:41 10° ESE visible
18 Jun 10.9 02:13:45 10° SE 02:15:56 11° ESE 02:18:05 10° ESE visible
18 Jun 9.5 04:10:21 10° SSW 04:19:29 54° SE 04:28:25 10° ENE visible
19 Jun 9.6 03:48:49 10° SSW 03:57:53 51° SE 04:06:46 10° ENE visible
20 Jun 9.6 03:27:57 12° SSW 03:36:18 48° SE 03:45:06 10° ENE visible
21 Jun 9.6 03:07:35 17° SSW 03:14:43 46° SE 03:23:26 10° ENE visible
22 Jun 9.6 02:47:10 21° S 02:53:08 43° SE 03:01:46 10° ENE visible
23 Jun 9.7 02:26:42 25° S 02:31:33 41° SE 02:40:04 10° ENE visible
24 Jun 9.7 02:06:11 28° S 02:09:58 39° SE 02:18:23 10° ENE visible
24 Jun 9.2 04:05:00 10° WSW 04:14:32 74° NNW 04:23:53 10° NE visible
25 Jun 9.7 01:45:37 31° SSE 01:48:24 36° SE 01:56:42 10° ENE visible
25 Jun 9.1 03:43:54 12° WSW 03:52:54 77° NNW 04:02:16 10° NE visible
